カタログに戻る

COSMOS 1317 DEB

LostHEO
NORAD 14735·DEBRIS·🇷🇺 Russia

打ち上げ Oct 31, 1981 から Plesetsk Cosmodrome

Loading…

次のパス (今後24時間)

TLE

古いSource: Space-Track

元期: Oct 24, 2024, 05:52 UTC

1 14735U 81108F   24298.24465617  .00000117  00000-0  00000+0 0  9996
2 14735  71.3593 110.5892 4907150 339.9958 234.0573  2.01436638282322

AllMySatでCOSMOS 1317 DEBをリアルタイム追跡

Download on the App Store